KK4URH Weather Reports


time (UTC)temp
C
wind
direction
speed
KPH
gust
KPH
rain 1hr
cm
rain 24hr
cm
rain mn
cm
humidity
%
barometer
mb
20260508064508 11 81 0.0 0.0 0.00 0.00 0.00 78 1013.2
20260508063006 11 81 0.0 0.0 0.00 0.00 0.00 78 1013.1
20260508061506 11 81 0.0 0.0 0.00 0.00 0.00 78 1013.1
20260508060006 11 81 0.0 0.0 0.00 0.00 0.00 78 1013.1
20260508054501 11 81 0.0 0.0 0.00 0.00 0.00 78 1013.0
20260508053107 11 81 0.0 0.0 0.00 0.00 0.00 78 1013.2
20260508051606 12 81 0.0 0.0 0.00 0.00 0.00 78 1013.0
20260508050057 12 81 0.0 0.0 0.00 0.00 0.00 78 1013.0
20260508044605 12 81 0.0 0.0 0.00 0.00 0.00 78 1013.0
20260508043055 12 81 0.0 0.0 0.00 0.00 0.00 78 1012.8
20260508041553 12 81 0.0 0.0 0.00 0.00 0.00 78 1013.0
20260508040052 12 81 0.0 0.0 0.00 0.00 0.00 78 1012.9
20260508034553 12 81 0.0 0.0 0.00 0.00 0.00 78 1012.7
20260508033051 12 81 0.0 0.0 0.00 0.00 0.00 78 1012.5
20260508031545 12 81 0.0 0.0 0.00 0.00 0.00 78 1012.3
20260508030046 12 81 0.0 0.0 0.00 0.00 0.00 78 1012.2
20260508024554 12 81 0.0 0.0 0.00 0.00 0.00 77 1012.1
20260508023010 12 81 0.0 0.0 0.00 0.00 0.00 77 1011.8
20260508021510 12 81 0.0 0.0 0.00 0.00 0.00 77 1011.9
20260508020012 12 83 0.0 0.0 0.00 0.00 0.00 77 1011.4
20260508014510 12 83 0.0 0.0 0.00 0.00 0.00 77 1011.5
20260508013003 12 83 0.0 0.0 0.00 0.00 0.00 77 1011.2
20260508011502 12 80 0.0 0.0 0.00 0.00 0.00 77 1011.0
20260508010059 12 81 0.0 0.0 0.00 0.00 0.00 77 1010.6
20260508004601 12 82 0.0 0.0 0.00 0.00 0.00 76 1010.7
20260508003059 12 82 0.0 0.0 0.00 0.00 0.00 76 1011.0
20260508001559 12 84 0.0 1.6 0.00 0.00 0.00 75 1011.0
20260508000052 12 84 0.0 4.8 0.00 0.00 0.00 74 1010.2
20260507234555 12 76 1.6 6.4 0.00 0.00 0.00 74 1009.2
20260507233050 12 16 0.0 6.4 0.00 0.00 0.00 74 1009.5
20260507231552 12 19 3.2 9.7 0.00 0.00 0.00 74 1009.7
20260507230048 13 22 6.4 14.5 0.00 0.00 0.00 74 1009.2
20260507224548 13 37 4.8 9.7 0.00 0.00 0.00 74 1009.3
20260507223048 13 41 4.8 9.7 0.00 0.00 0.00 73 1008.9
20260507221544 12 42 4.8 9.7 0.00 0.00 0.00 73 1008.8
20260507220031 12 71 1.6 9.7 0.00 0.00 0.00 74 1008.9
20260507214521 12 42 3.2 9.7 0.00 0.00 0.00 74 1009.2
20260507213006 12 46 8.0 17.7 0.00 0.00 0.00 75 1008.7
20260507211506 13 55 8.0 17.7 0.00 0.00 0.00 75 1008.7
20260507210001 13 49 4.8 16.1 0.00 0.00 0.00 75 1008.3
20260507204600 13 351 6.4 16.1 0.00 0.00 0.00 75 1008.1
20260507203055 13 355 4.8 11.3 0.00 0.00 0.00 76 1008.0
20260507201606 13 40 4.8 9.7 0.00 0.00 0.00 76 1007.9
20260507200057 13 270 1.6 9.7 0.00 0.00 0.00 77 1008.1
20260507194551 14 42 4.8 14.5 0.00 0.00 0.00 77 1007.8
20260507193019 14 50 4.8 12.9 0.00 0.00 0.00 76 1007.8
20260507191517 15 16 4.8 12.9 0.00 0.00 0.00 76 1007.6
20260507190013 15 40 3.2 14.5 0.00 0.00 0.00 75 1007.8
20260507184508 16 34 8.0 17.7 0.00 0.00 0.00 75 1006.8
20260507183003 17 355 4.8 12.9 0.00 0.00 0.00 74 1007.5
20260507181559 18 51 6.4 14.5 0.00 0.00 0.00 72 1006.7
20260507180054 21 360 0.0 4.8 0.00 0.00 0.00 74 1006.8
20260507174601 21 360 0.0 6.4 0.00 0.00 0.00 75 1007.4
20260507173050 21 192 0.0 4.8 0.00 0.00 0.00 77 1007.3
20260507171600 20 178 0.0 4.8 0.00 0.00 0.00 76 1007.0
20260507170026 20 184 0.0 4.8 0.00 0.00 0.00 77 1006.9
20260507164515 20 194 0.0 1.6 0.00 0.00 0.00 77 1007.3
20260507163131 20 193 0.0 3.2 0.00 0.00 0.00 78 1007.7
20260507161541 20 186 0.0 3.2 0.00 0.00 0.00 77 1008.2
20260507160044 20 209 1.6 6.4 0.00 0.00 0.00 77 1008.6
20260507154509 20 328 0.0 3.2 0.00 0.00 0.00 77 1008.2
20260507153007 20 196 0.0 4.8 0.00 0.00 0.00 78 1007.6
20260507151502 19 206 0.0 6.4 0.00 0.00 0.00 78 1007.9
20260507150101 19 197 0.0 4.8 0.00 0.00 0.00 77 1008.1
20260507144616 19 194 0.0 6.4 0.00 0.00 0.00 78 1008.6
20260507143057 19 200 0.0 9.7 0.00 0.00 0.00 77 1008.7
20260507141615 19 196 0.0 4.8 0.00 0.00 0.00 77 1008.8
20260507140053 19 195 0.0 3.2 0.00 0.00 0.00 77 1009.0
20260507134553 19 196 0.0 4.8 0.00 0.00 0.00 77 1008.9
20260507133053 19 226 0.0 3.2 0.00 0.00 0.00 77 1009.0
20260507131552 19 240 0.0 1.6 0.00 0.00 0.00 78 1009.0
20260507130053 19 194 0.0 4.8 0.00 0.00 0.00 78 1008.8
20260507124548 19 173 0.0 6.4 0.00 0.00 0.00 78 1008.8
20260507123049 19 197 0.0 8.0 0.00 0.00 0.00 78 1008.7
20260507121545 19 163 0.0 4.8 0.00 0.00 0.00 78 1009.0
20260507120045 18 180 1.6 6.4 0.00 0.00 0.00 78 1009.2
20260507114543 18 187 0.0 6.4 0.00 0.00 0.00 78 1009.4
20260507113042 18 191 0.0 3.2 0.00 0.00 0.00 78 1009.6
20260507111544 18 191 0.0 3.2 0.00 0.00 0.00 77 1009.5
20260507110040 18 196 1.6 3.2 0.00 0.00 0.00 77 1009.7
20260507104539 18 194 0.0 4.8 0.00 0.00 0.00 77 1009.3
20260507103041 18 195 0.0 3.2 0.00 0.00 0.00 77 1009.2
20260507101544 18 198 1.6 6.4 0.00 0.00 0.00 77 1009.1
20260507100040 18 196 0.0 4.8 0.00 0.00 0.00 78 1009.3
20260507094542 18 197 0.0 4.8 0.00 0.00 0.00 78 1009.0
20260507093036 18 167 0.0 4.8 0.00 0.00 0.00 78 1009.2
20260507091532 18 178 1.6 4.8 0.00 0.00 0.00 78 1009.1
20260507090035 18 177 0.0 3.2 0.00 0.00 0.00 78 1009.1
20260507084535 18 175 0.0 1.6 0.00 0.00 0.00 77 1009.5
20260507083029 18 173 0.0 8.0 0.00 0.00 0.00 77 1009.4
20260507081559 18 153 0.0 4.8 0.00 0.00 0.00 77 1010.1
20260507080059 18 185 0.0 4.8 0.00 0.00 0.00 77 1009.9
20260507074555 18 185 0.0 0.0 0.00 0.00 0.00 76 1010.0
20260507073101 18 185 0.0 0.0 0.00 0.00 0.00 76 1010.2
20260507071556 18 185 0.0 3.2 0.00 0.00 0.00 76 1010.0
20260507070058 18 190 0.0 0.0 0.00 0.00 0.00 75 1010.6